星链-3611 (STARLINK-3611 )

导读

STARLINK-3611是美国SpaceX星链项目的低轨通信卫星,于2022年2月25日发射,星链V1.5版本,国际标识2022-017M。目前在轨运行已超四年,运行轨道高度约540公里,倾角53.2°,属于星链第11批卫星群。它搭载激光通信终端,可实现星间高速互联,为全球提供宽带互联网服务,尤其覆盖基础设施匮乏区域,支撑远程教育、远程医疗等应用,服务全球联网。

Basic Information
目录编号:
51779
目录名称:
STARLINK-3611
国际标识:
2022-017M
轨道中心:
EARTH
卫星名称:
星链-3611
卫星全名:
星链-3611 (STARLINK-3611 )
卫星状态:
在轨 (已飞行1573 天)
发射日期:
2022-02-25 UTC
国别 :
美国 (US)
星等 :
--
Orbit Information
数据来源 国际轨道数据
星历时间: 2026-06-17T19:34:39+0800
7小时前
查看轨道信息
半长轴: 6917.877km
偏心率: 0.0001159
轨道倾角: 53.159°
近地点辐角 88.738°
升交点赤经 251.083°
平近点角 271.375°
近地点: 538.938km
远地点: 540.542km
周期: 95.437分钟
每日圈数: 15.088412
Detailed Information
固有亮度:
5
最大亮度:
2.5
卫星平台:
Starlink v1.5
覆盖范围:
全球
运营商:
太空探索技术公司
运营商所在国:
美国
制造商(研发单位):
太空探索技术公司
制造商所在国:
美国
使用方式:
暂无
Satellite Introduction
星链(Starlink)计划是由太空探索技术公司(SpaceX)提出的一个巨型低轨卫星互联网星座项目,计划在2019年至2024年间在太空搭建由约1.2万颗卫星组成的“星链”网络,其中1584颗将部署在地球上空550千米处的近地轨道,并从2020年开始工作。该卫星仍在工作。
2D Orbit Map
3D Orbit Map
Orbit Altitude Analysis Chart
Orbit Inclination Analysis Chart
Orbit Comprehensive Analysis Chart
View Comprehensive Chart